Year,Month,Day,Hour,Minute,Value (Times are PST for temperature in C)
2021,06,25,00,00,17.30
2021,06,25,00,01,17.30
2021,06,25,00,02,17.30
2021,06,25,00,03,17.30
2021,06,25,00,04,17.30
2021,06,25,00,05,17.30
2021,06,25,00,06,17.30
2021,06,25,00,07,17.30
2021,06,25,00,08,17.30
2021,06,25,00,09,17.20
2021,06,25,00,10,17.20
2021,06,25,00,11,17.20
2021,06,25,00,12,17.20
2021,06,25,00,13,17.20
2021,06,25,00,14,17.20
2021,06,25,00,15,17.20
2021,06,25,00,16,17.10
2021,06,25,00,17,17.10
2021,06,25,00,18,17.10
2021,06,25,00,19,17.10
2021,06,25,00,20,17.10
2021,06,25,00,21,17.00
2021,06,25,00,22,17.00
2021,06,25,00,23,17.00
2021,06,25,00,24,17.00
2021,06,25,00,25,17.00
2021,06,25,00,26,17.00
2021,06,25,00,27,16.90
2021,06,25,00,28,16.90
2021,06,25,00,29,16.90
2021,06,25,00,30,16.90
2021,06,25,00,31,16.90
2021,06,25,00,32,16.90
2021,06,25,00,33,16.80
2021,06,25,00,34,16.80
2021,06,25,00,35,16.80
2021,06,25,00,36,16.80
2021,06,25,00,37,16.80
2021,06,25,00,38,16.80
2021,06,25,00,39,16.80
2021,06,25,00,40,16.80
2021,06,25,00,41,16.80
2021,06,25,00,42,16.80
2021,06,25,00,43,16.70
2021,06,25,00,44,16.70
2021,06,25,00,45,16.70
2021,06,25,00,46,16.70
2021,06,25,00,47,16.70
2021,06,25,00,48,16.70
2021,06,25,00,49,16.70
2021,06,25,00,50,16.70
2021,06,25,00,51,16.70
2021,06,25,00,52,16.70
2021,06,25,00,53,16.70
2021,06,25,00,54,16.70
2021,06,25,00,55,16.70
2021,06,25,00,56,16.70
2021,06,25,00,57,16.70
2021,06,25,00,58,16.70
2021,06,25,00,59,16.70
2021,06,25,01,00,16.70
2021,06,25,01,01,16.70
2021,06,25,01,02,16.70
2021,06,25,01,03,16.70
2021,06,25,01,04,16.70
2021,06,25,01,05,16.70
2021,06,25,01,06,16.80
2021,06,25,01,07,16.80
2021,06,25,01,08,16.80
2021,06,25,01,09,16.80
2021,06,25,01,10,16.80
2021,06,25,01,11,16.80
2021,06,25,01,12,16.90
2021,06,25,01,13,16.90
2021,06,25,01,14,16.90
2021,06,25,01,15,16.90
2021,06,25,01,16,16.90
2021,06,25,01,17,17.00
2021,06,25,01,18,17.00
2021,06,25,01,19,17.00
2021,06,25,01,20,17.00
2021,06,25,01,21,17.00
2021,06,25,01,22,17.10
2021,06,25,01,23,17.10
2021,06,25,01,24,17.10
2021,06,25,01,25,17.10
2021,06,25,01,26,17.10
2021,06,25,01,27,17.10
2021,06,25,01,28,17.10
2021,06,25,01,29,17.10
2021,06,25,01,30,17.10
2021,06,25,01,31,17.10
2021,06,25,01,32,17.10
2021,06,25,01,33,17.10
2021,06,25,01,34,17.10
2021,06,25,01,35,17.10
2021,06,25,01,36,17.10
2021,06,25,01,37,17.10
2021,06,25,01,38,17.10
2021,06,25,01,39,17.10
2021,06,25,01,40,17.10
2021,06,25,01,41,17.10
2021,06,25,01,42,17.10
2021,06,25,01,43,17.10
2021,06,25,01,44,17.10
2021,06,25,01,45,17.10
2021,06,25,01,46,17.10
2021,06,25,01,47,17.10
2021,06,25,01,48,17.20
2021,06,25,01,49,17.20
2021,06,25,01,50,17.20
2021,06,25,01,51,17.20
2021,06,25,01,52,17.30
2021,06,25,01,53,17.30
2021,06,25,01,54,17.30
2021,06,25,01,55,17.30
2021,06,25,01,56,17.30
2021,06,25,01,57,17.30
2021,06,25,01,58,17.30
2021,06,25,01,59,17.30
2021,06,25,02,00,17.30
2021,06,25,02,01,17.30
2021,06,25,02,02,17.30
2021,06,25,02,03,17.30
2021,06,25,02,04,17.30
2021,06,25,02,05,17.30
2021,06,25,02,06,17.30
2021,06,25,02,07,17.30
2021,06,25,02,08,17.30
2021,06,25,02,09,17.30
2021,06,25,02,10,17.30
2021,06,25,02,11,17.30
2021,06,25,02,12,17.30
2021,06,25,02,13,17.30
2021,06,25,02,14,17.30
2021,06,25,02,15,17.30
2021,06,25,02,16,17.30
2021,06,25,02,17,17.20
2021,06,25,02,18,17.20
2021,06,25,02,19,17.20
2021,06,25,02,20,17.20
2021,06,25,02,21,17.20
2021,06,25,02,22,17.20
2021,06,25,02,23,17.20
2021,06,25,02,24,17.20
2021,06,25,02,25,17.20
2021,06,25,02,26,17.20
2021,06,25,02,27,17.20
2021,06,25,02,28,17.20
2021,06,25,02,29,17.30
2021,06,25,02,30,17.30
2021,06,25,02,31,17.30
2021,06,25,02,32,17.30
2021,06,25,02,33,17.30
2021,06,25,02,34,17.30
2021,06,25,02,35,17.30
2021,06,25,02,36,17.20
2021,06,25,02,37,17.20
2021,06,25,02,38,17.20
2021,06,25,02,39,17.20
2021,06,25,02,40,17.20
2021,06,25,02,41,17.20
2021,06,25,02,42,17.20
2021,06,25,02,43,17.10
2021,06,25,02,44,17.10
2021,06,25,02,45,17.10
2021,06,25,02,46,17.10
2021,06,25,02,47,17.10
2021,06,25,02,48,17.00
2021,06,25,02,49,17.00
2021,06,25,02,50,17.00
2021,06,25,02,51,17.00
2021,06,25,02,52,16.90
2021,06,25,02,53,16.90
2021,06,25,02,54,16.80
2021,06,25,02,55,16.80
2021,06,25,02,56,16.70
2021,06,25,02,57,16.70
2021,06,25,02,58,16.70
2021,06,25,02,59,16.60
2021,06,25,03,00,16.50
2021,06,25,03,01,16.40
2021,06,25,03,02,16.40
2021,06,25,03,03,16.40
2021,06,25,03,04,16.30
2021,06,25,03,05,16.30
2021,06,25,03,06,16.30
2021,06,25,03,07,16.20
2021,06,25,03,08,16.20
2021,06,25,03,09,16.20
2021,06,25,03,10,16.20
2021,06,25,03,11,16.10
2021,06,25,03,12,16.10
2021,06,25,03,13,16.10
2021,06,25,03,14,16.10
2021,06,25,03,15,16.10
2021,06,25,03,16,16.10
2021,06,25,03,17,16.10
2021,06,25,03,18,16.10
2021,06,25,03,19,16.10
2021,06,25,03,20,16.10
2021,06,25,03,21,15.90
2021,06,25,03,22,15.90
2021,06,25,03,23,15.90
2021,06,25,03,24,15.90
2021,06,25,03,25,15.90
2021,06,25,03,26,15.90
2021,06,25,03,27,15.80
2021,06,25,03,28,15.80
2021,06,25,03,29,15.80
2021,06,25,03,30,15.80
2021,06,25,03,31,15.80
2021,06,25,03,32,15.80
2021,06,25,03,33,15.80
2021,06,25,03,34,15.80
2021,06,25,03,35,15.80
2021,06,25,03,36,15.90
2021,06,25,03,37,15.90
2021,06,25,03,38,15.90
2021,06,25,03,39,15.90
2021,06,25,03,40,15.90
2021,06,25,03,41,15.90
2021,06,25,03,42,15.90
2021,06,25,03,43,15.90
2021,06,25,03,44,15.90
2021,06,25,03,45,15.90
2021,06,25,03,46,15.90
2021,06,25,03,47,15.90
2021,06,25,03,48,15.90
2021,06,25,03,49,15.90
2021,06,25,03,50,15.90
2021,06,25,03,51,15.90
2021,06,25,03,52,16.00
2021,06,25,03,53,16.10
2021,06,25,03,54,16.10
2021,06,25,03,55,16.10
2021,06,25,03,56,16.10
2021,06,25,03,57,16.10
2021,06,25,03,58,16.10
2021,06,25,03,59,16.10
2021,06,25,04,00,16.10
2021,06,25,04,01,16.10
2021,06,25,04,02,16.10
2021,06,25,04,03,16.10
2021,06,25,04,04,16.10
2021,06,25,04,05,16.10
2021,06,25,04,06,16.10
2021,06,25,04,07,16.10
2021,06,25,04,08,16.10
2021,06,25,04,09,16.00
2021,06,25,04,10,15.90
2021,06,25,04,11,15.90
2021,06,25,04,12,15.90
2021,06,25,04,13,15.90
2021,06,25,04,14,15.80
2021,06,25,04,15,15.80
2021,06,25,04,16,15.80
2021,06,25,04,17,15.80
2021,06,25,04,18,15.80
2021,06,25,04,19,15.80
2021,06,25,04,20,15.80
2021,06,25,04,21,15.80
2021,06,25,04,22,15.80
2021,06,25,04,23,15.80
2021,06,25,04,24,15.80
2021,06,25,04,25,15.80
2021,06,25,04,26,15.80
2021,06,25,04,27,15.80
2021,06,25,04,28,15.80
2021,06,25,04,29,15.80
2021,06,25,04,30,15.80
2021,06,25,04,31,15.80
2021,06,25,04,32,15.80
2021,06,25,04,33,15.80
2021,06,25,04,34,15.80
2021,06,25,04,35,15.80
2021,06,25,04,36,15.80
2021,06,25,04,37,15.80
2021,06,25,04,38,15.80
2021,06,25,04,39,15.80
2021,06,25,04,40,15.80
2021,06,25,04,41,15.80
2021,06,25,04,42,15.80
2021,06,25,04,43,15.80
2021,06,25,04,44,15.80
2021,06,25,04,45,15.80
2021,06,25,04,46,15.80
2021,06,25,04,47,15.80
2021,06,25,04,48,15.80
2021,06,25,04,49,15.80
2021,06,25,04,50,15.80
2021,06,25,04,51,15.80
2021,06,25,04,52,15.80
2021,06,25,04,53,15.80
2021,06,25,04,54,15.80
2021,06,25,04,55,15.80
2021,06,25,04,56,15.70
2021,06,25,04,57,15.70
2021,06,25,04,58,15.70
2021,06,25,04,59,15.70
2021,06,25,05,00,15.60
2021,06,25,05,01,15.60
2021,06,25,05,02,15.60
2021,06,25,05,03,15.50
2021,06,25,05,04,15.50
2021,06,25,05,05,15.40
2021,06,25,05,06,15.40
2021,06,25,05,07,15.40
2021,06,25,05,08,15.30
2021,06,25,05,09,15.30
2021,06,25,05,10,15.30
2021,06,25,05,11,15.30
2021,06,25,05,12,15.30
2021,06,25,05,13,15.20
2021,06,25,05,14,15.20
2021,06,25,05,15,15.20
2021,06,25,05,16,15.20
2021,06,25,05,17,15.20
2021,06,25,05,18,15.10
2021,06,25,05,19,15.10
2021,06,25,05,20,15.10
2021,06,25,05,21,15.10
2021,06,25,05,22,15.10
2021,06,25,05,23,15.10
2021,06,25,05,24,15.10
2021,06,25,05,25,15.10
2021,06,25,05,26,15.10
2021,06,25,05,27,15.10
2021,06,25,05,28,15.10
2021,06,25,05,29,15.10
2021,06,25,05,30,15.10
2021,06,25,05,31,15.10
2021,06,25,05,32,15.10
2021,06,25,05,33,15.10
2021,06,25,05,34,15.10
2021,06,25,05,35,15.00
2021,06,25,05,36,15.00
2021,06,25,05,37,15.00
2021,06,25,05,38,15.00
2021,06,25,05,39,14.90
2021,06,25,05,40,14.90
2021,06,25,05,41,14.90
2021,06,25,05,42,14.90
2021,06,25,05,43,14.90
2021,06,25,05,44,14.90
2021,06,25,05,45,14.80
2021,06,25,05,46,14.80
2021,06,25,05,47,14.80
2021,06,25,05,48,14.80
2021,06,25,05,49,14.70
2021,06,25,05,50,14.70
2021,06,25,05,51,14.60
2021,06,25,05,52,14.60
2021,06,25,05,53,14.50
2021,06,25,05,54,14.50
2021,06,25,05,55,14.40
2021,06,25,05,56,14.40
2021,06,25,05,57,14.40
2021,06,25,05,58,14.30
2021,06,25,05,59,14.30
2021,06,25,06,00,14.30
2021,06,25,06,01,14.20
2021,06,25,06,02,14.20
2021,06,25,06,03,14.20
2021,06,25,06,04,14.30
2021,06,25,06,05,14.30
2021,06,25,06,06,14.30
2021,06,25,06,07,14.30
2021,06,25,06,08,14.30
2021,06,25,06,09,14.30
2021,06,25,06,10,14.40
2021,06,25,06,11,14.40
2021,06,25,06,12,14.40
2021,06,25,06,13,14.50
2021,06,25,06,14,14.50
2021,06,25,06,15,14.50
2021,06,25,06,16,14.60
2021,06,25,06,17,14.60
2021,06,25,06,18,14.70
2021,06,25,06,19,14.70
2021,06,25,06,20,14.70
2021,06,25,06,21,14.80
2021,06,25,06,22,14.80
2021,06,25,06,23,14.80
2021,06,25,06,24,14.80
2021,06,25,06,25,14.90
2021,06,25,06,26,14.90
2021,06,25,06,27,15.00
2021,06,25,06,28,15.00
2021,06,25,06,29,15.10
2021,06,25,06,30,15.10
2021,06,25,06,31,15.20
2021,06,25,06,32,15.20
2021,06,25,06,33,15.30
2021,06,25,06,34,15.30
2021,06,25,06,35,15.40
2021,06,25,06,36,15.50
2021,06,25,06,37,15.60
2021,06,25,06,38,15.60
2021,06,25,06,39,15.70
2021,06,25,06,40,15.80
2021,06,25,06,41,15.80
2021,06,25,06,42,15.90
2021,06,25,06,43,16.00
2021,06,25,06,44,16.10
2021,06,25,06,45,16.20
2021,06,25,06,46,16.30
2021,06,25,06,47,16.40
2021,06,25,06,48,16.40
2021,06,25,06,49,16.60
2021,06,25,06,50,16.70
2021,06,25,06,51,16.70
2021,06,25,06,52,16.80
2021,06,25,06,53,16.90
2021,06,25,06,54,17.00
2021,06,25,06,55,17.00
2021,06,25,06,56,17.10
2021,06,25,06,57,17.30
2021,06,25,06,58,17.30
2021,06,25,06,59,17.40
2021,06,25,07,00,17.50
2021,06,25,07,01,17.70
2021,06,25,07,02,17.70
2021,06,25,07,03,17.80
2021,06,25,07,04,17.90
2021,06,25,07,05,18.00
2021,06,25,07,06,18.10
2021,06,25,07,07,18.20
2021,06,25,07,08,18.30
2021,06,25,07,09,18.30
2021,06,25,07,10,18.40
2021,06,25,07,11,18.40
2021,06,25,07,12,18.50
2021,06,25,07,13,18.50
2021,06,25,07,14,18.60
2021,06,25,07,15,18.60
2021,06,25,07,16,18.70
2021,06,25,07,17,18.80
2021,06,25,07,18,18.90
2021,06,25,07,19,18.90
2021,06,25,07,20,18.90
2021,06,25,07,21,19.10
2021,06,25,07,22,19.10
2021,06,25,07,23,19.10
2021,06,25,07,24,19.20
2021,06,25,07,25,19.40
2021,06,25,07,26,19.40
2021,06,25,07,27,19.60
2021,06,25,07,28,19.70
2021,06,25,07,29,19.70
2021,06,25,07,30,19.70
2021,06,25,07,31,19.70
2021,06,25,07,32,19.80
2021,06,25,07,33,19.90
2021,06,25,07,34,19.90
2021,06,25,07,35,19.90
2021,06,25,07,36,19.90
2021,06,25,07,37,19.90
2021,06,25,07,38,20.10
2021,06,25,07,39,20.10
2021,06,25,07,40,20.20
2021,06,25,07,41,20.20
2021,06,25,07,42,20.20
2021,06,25,07,43,20.20
2021,06,25,07,44,20.30
2021,06,25,07,45,20.40
2021,06,25,07,46,20.40
2021,06,25,07,47,20.50
2021,06,25,07,48,20.60
2021,06,25,07,49,20.70
2021,06,25,07,50,20.80
2021,06,25,07,51,20.80
2021,06,25,07,52,20.90
2021,06,25,07,53,21.00
2021,06,25,07,54,21.00
2021,06,25,07,55,21.00
2021,06,25,07,56,21.00
2021,06,25,07,57,21.00
2021,06,25,07,58,21.10
2021,06,25,07,59,21.10
2021,06,25,08,00,21.10
2021,06,25,08,01,21.20
2021,06,25,08,02,21.10
2021,06,25,08,03,21.10
2021,06,25,08,04,21.10
2021,06,25,08,05,21.10
2021,06,25,08,06,21.10
2021,06,25,08,07,21.20
2021,06,25,08,08,21.20
2021,06,25,08,09,21.30
2021,06,25,08,10,21.30
2021,06,25,08,11,21.30
2021,06,25,08,12,21.30
2021,06,25,08,13,21.40
2021,06,25,08,14,21.50
2021,06,25,08,15,21.60
2021,06,25,08,16,21.60
2021,06,25,08,17,21.60
2021,06,25,08,18,21.70
2021,06,25,08,19,21.80
2021,06,25,08,20,21.80
2021,06,25,08,21,21.90
2021,06,25,08,22,22.00
2021,06,25,08,23,22.00
2021,06,25,08,24,22.10
2021,06,25,08,25,22.20
2021,06,25,08,26,22.30
2021,06,25,08,27,22.30
2021,06,25,08,28,22.40
2021,06,25,08,29,22.50
2021,06,25,08,30,22.50
2021,06,25,08,31,22.50
2021,06,25,08,32,22.50
2021,06,25,08,33,22.50
2021,06,25,08,34,22.40
2021,06,25,08,35,22.40
2021,06,25,08,36,22.30
2021,06,25,08,37,22.30
2021,06,25,08,38,22.20
2021,06,25,08,39,22.30
2021,06,25,08,40,22.20
2021,06,25,08,41,22.20
2021,06,25,08,42,22.10
2021,06,25,08,43,22.00
2021,06,25,08,44,22.00
2021,06,25,08,45,22.00
2021,06,25,08,46,22.00
2021,06,25,08,47,22.00
2021,06,25,08,48,22.00
2021,06,25,08,49,22.00
2021,06,25,08,50,22.00
2021,06,25,08,51,22.00
2021,06,25,08,52,22.00
2021,06,25,08,53,22.00
2021,06,25,08,54,22.10
2021,06,25,08,55,22.20
2021,06,25,08,56,22.20
2021,06,25,08,57,22.30
2021,06,25,08,58,22.40
2021,06,25,08,59,22.50
2021,06,25,09,00,22.60
2021,06,25,09,01,22.70
2021,06,25,09,02,22.80
2021,06,25,09,03,22.90
2021,06,25,09,04,23.00
2021,06,25,09,05,23.10
2021,06,25,09,06,23.20
2021,06,25,09,07,23.30
2021,06,25,09,08,23.30
2021,06,25,09,09,23.30
2021,06,25,09,10,23.30
2021,06,25,09,11,23.40
2021,06,25,09,12,23.40
2021,06,25,09,13,23.50
2021,06,25,09,14,23.60
2021,06,25,09,15,23.70
2021,06,25,09,16,23.70
2021,06,25,09,17,23.80
2021,06,25,09,18,23.90
2021,06,25,09,19,24.00
2021,06,25,09,20,24.10
2021,06,25,09,21,24.10
2021,06,25,09,22,24.20
2021,06,25,09,23,24.30
2021,06,25,09,24,24.30
2021,06,25,09,25,24.40
2021,06,25,09,26,24.40
2021,06,25,09,27,24.40
2021,06,25,09,28,24.40
2021,06,25,09,29,24.30
2021,06,25,09,30,24.30
2021,06,25,09,31,24.30
2021,06,25,09,32,24.30
2021,06,25,09,33,24.20
2021,06,25,09,34,24.20
2021,06,25,09,35,24.20
2021,06,25,09,36,24.20
2021,06,25,09,37,24.20
2021,06,25,09,38,24.30
2021,06,25,09,39,24.40
2021,06,25,09,40,24.40
2021,06,25,09,41,24.50
2021,06,25,09,42,24.50
2021,06,25,09,43,24.60
2021,06,25,09,44,24.60
2021,06,25,09,45,24.60
2021,06,25,09,46,24.70
2021,06,25,09,47,24.60
2021,06,25,09,48,24.60
2021,06,25,09,49,24.50
2021,06,25,09,50,24.50
2021,06,25,09,51,24.50
2021,06,25,09,52,24.60
2021,06,25,09,53,24.60
2021,06,25,09,54,24.70
2021,06,25,09,55,24.80
2021,06,25,09,56,24.80
2021,06,25,09,57,24.90
2021,06,25,09,58,24.90
2021,06,25,09,59,24.90
2021,06,25,10,00,24.90
2021,06,25,10,01,24.90
2021,06,25,10,02,24.80
2021,06,25,10,03,24.80
2021,06,25,10,04,24.70
2021,06,25,10,05,24.70
2021,06,25,10,06,24.80
2021,06,25,10,07,24.80
2021,06,25,10,08,24.90
2021,06,25,10,09,24.90
2021,06,25,10,10,24.90
2021,06,25,10,11,24.80
2021,06,25,10,12,24.80
2021,06,25,10,13,24.80
2021,06,25,10,14,24.90
2021,06,25,10,15,25.00
2021,06,25,10,16,25.10
2021,06,25,10,17,25.20
2021,06,25,10,18,25.30
2021,06,25,10,19,25.30
2021,06,25,10,20,25.30
2021,06,25,10,21,25.40
2021,06,25,10,22,25.40
2021,06,25,10,23,25.30
2021,06,25,10,24,25.30
2021,06,25,10,25,25.30
2021,06,25,10,26,25.30
2021,06,25,10,27,25.20
2021,06,25,10,28,25.00
2021,06,25,10,29,24.90
2021,06,25,10,30,24.80
2021,06,25,10,31,24.80
2021,06,25,10,32,24.80
2021,06,25,10,33,24.70
2021,06,25,10,34,24.60
2021,06,25,10,35,24.50
2021,06,25,10,36,24.40
2021,06,25,10,37,24.30
2021,06,25,10,38,24.20
2021,06,25,10,39,24.30
2021,06,25,10,40,24.30
2021,06,25,10,41,24.30
2021,06,25,10,42,24.40
2021,06,25,10,43,24.50
2021,06,25,10,44,24.60
2021,06,25,10,45,24.70
2021,06,25,10,46,24.80
2021,06,25,10,47,24.90
2021,06,25,10,48,25.00
2021,06,25,10,49,25.10
2021,06,25,10,50,25.20
2021,06,25,10,51,25.20
2021,06,25,10,52,25.30
2021,06,25,10,53,25.40
2021,06,25,10,54,25.50
2021,06,25,10,55,25.50
2021,06,25,10,56,25.50
2021,06,25,10,57,25.50
2021,06,25,10,58,25.40
2021,06,25,10,59,25.40
2021,06,25,11,00,25.40
2021,06,25,11,01,25.30
2021,06,25,11,02,25.10
2021,06,25,11,03,25.10
2021,06,25,11,04,25.20
2021,06,25,11,05,25.20
2021,06,25,11,06,25.20
2021,06,25,11,07,25.30
2021,06,25,11,08,25.40
2021,06,25,11,09,25.50
2021,06,25,11,10,25.60
2021,06,25,11,11,25.60
2021,06,25,11,12,25.80
2021,06,25,11,13,25.80
2021,06,25,11,14,26.00
2021,06,25,11,15,26.10
2021,06,25,11,16,26.30
2021,06,25,11,17,26.40
2021,06,25,11,18,26.50
2021,06,25,11,19,26.60
2021,06,25,11,20,26.60
2021,06,25,11,21,26.60
2021,06,25,11,22,26.60
2021,06,25,11,23,26.60
2021,06,25,11,24,26.60
2021,06,25,11,25,26.50
2021,06,25,11,26,26.40
2021,06,25,11,27,26.30
2021,06,25,11,28,26.30
2021,06,25,11,29,26.30
2021,06,25,11,30,26.10
2021,06,25,11,31,26.00
2021,06,25,11,32,25.80
2021,06,25,11,33,25.70
2021,06,25,11,34,25.60
2021,06,25,11,35,25.60
2021,06,25,11,36,25.60
2021,06,25,11,37,25.80
2021,06,25,11,38,25.90
2021,06,25,11,39,26.00
2021,06,25,11,40,26.20
2021,06,25,11,41,26.40
2021,06,25,11,42,26.50
2021,06,25,11,43,26.60
2021,06,25,11,44,26.60
2021,06,25,11,45,26.60
2021,06,25,11,46,26.60
2021,06,25,11,47,26.60
2021,06,25,11,48,26.50
2021,06,25,11,49,26.40
2021,06,25,11,50,26.40
2021,06,25,11,51,26.30
2021,06,25,11,52,26.20
2021,06,25,11,53,26.20
2021,06,25,11,54,26.30
2021,06,25,11,55,26.30
2021,06,25,11,56,26.40
2021,06,25,11,57,26.40
2021,06,25,11,58,26.50
2021,06,25,11,59,26.60
2021,06,25,12,00,26.60
2021,06,25,12,01,26.60
2021,06,25,12,02,26.70
2021,06,25,12,03,26.70
2021,06,25,12,04,26.70
2021,06,25,12,05,26.80
2021,06,25,12,06,26.80
2021,06,25,12,07,26.90
2021,06,25,12,08,26.90
2021,06,25,12,09,27.10
2021,06,25,12,10,27.10
2021,06,25,12,11,27.10
2021,06,25,12,12,27.10
2021,06,25,12,13,27.10
2021,06,25,12,14,27.00
2021,06,25,12,15,26.90
2021,06,25,12,16,27.00
2021,06,25,12,17,27.10
2021,06,25,12,18,27.00
2021,06,25,12,19,27.00
2021,06,25,12,20,27.10
2021,06,25,12,21,27.10
2021,06,25,12,22,27.20
2021,06,25,12,23,27.20
2021,06,25,12,24,27.30
2021,06,25,12,25,27.30
2021,06,25,12,26,27.40
2021,06,25,12,27,27.50
2021,06,25,12,28,27.60
2021,06,25,12,29,27.70
2021,06,25,12,30,27.70
2021,06,25,12,31,27.80
2021,06,25,12,32,27.90
2021,06,25,12,33,27.90
2021,06,25,12,34,28.00
2021,06,25,12,35,28.00
2021,06,25,12,36,28.00
2021,06,25,12,37,27.90
2021,06,25,12,38,27.90
2021,06,25,12,39,27.80
2021,06,25,12,40,27.80
2021,06,25,12,41,27.70
2021,06,25,12,42,27.60
2021,06,25,12,43,27.40
2021,06,25,12,44,27.30
2021,06,25,12,45,27.10
2021,06,25,12,46,27.00
2021,06,25,12,47,26.90
2021,06,25,12,48,26.90
2021,06,25,12,49,27.00
2021,06,25,12,50,27.10
2021,06,25,12,51,27.00
2021,06,25,12,52,26.90
2021,06,25,12,53,27.00
2021,06,25,12,54,27.10
2021,06,25,12,55,27.10
2021,06,25,12,56,27.20
2021,06,25,12,57,27.30
2021,06,25,12,58,27.40
2021,06,25,12,59,27.40
2021,06,25,13,00,27.40
2021,06,25,13,01,27.50
2021,06,25,13,02,27.60
2021,06,25,13,03,27.60
2021,06,25,13,04,27.70
2021,06,25,13,05,27.70
2021,06,25,13,06,27.80
2021,06,25,13,07,27.90
2021,06,25,13,08,27.90
2021,06,25,13,09,28.00
2021,06,25,13,10,28.10
2021,06,25,13,11,28.10
2021,06,25,13,12,28.20
2021,06,25,13,13,28.20
2021,06,25,13,14,28.10
2021,06,25,13,15,28.10
2021,06,25,13,16,28.10
2021,06,25,13,17,28.10
2021,06,25,13,18,28.20
2021,06,25,13,19,28.30
2021,06,25,13,20,28.30
2021,06,25,13,21,28.40
2021,06,25,13,22,28.40
2021,06,25,13,23,28.30
2021,06,25,13,24,28.40
2021,06,25,13,25,28.40
2021,06,25,13,26,28.40
2021,06,25,13,27,28.40
2021,06,25,13,28,28.40
2021,06,25,13,29,28.60
2021,06,25,13,30,28.60
2021,06,25,13,31,28.70
2021,06,25,13,32,28.70
2021,06,25,13,33,28.70
2021,06,25,13,34,28.70
2021,06,25,13,35,28.70
2021,06,25,13,36,28.70
2021,06,25,13,37,28.80
2021,06,25,13,38,28.90
2021,06,25,13,39,28.90
2021,06,25,13,40,28.90
2021,06,25,13,41,28.90
2021,06,25,13,42,28.80
2021,06,25,13,43,28.80
2021,06,25,13,44,28.80
2021,06,25,13,45,28.80
2021,06,25,13,46,28.80
2021,06,25,13,47,28.80
2021,06,25,13,48,28.80
2021,06,25,13,49,28.90
2021,06,25,13,50,28.90
2021,06,25,13,51,28.90
2021,06,25,13,52,28.90
2021,06,25,13,53,28.90
2021,06,25,13,54,28.90
2021,06,25,13,55,28.90
2021,06,25,13,56,28.90
2021,06,25,13,57,29.10
2021,06,25,13,58,29.20
2021,06,25,13,59,29.40
2021,06,25,14,00,29.50
2021,06,25,14,01,29.70
2021,06,25,14,02,29.80
2021,06,25,14,03,29.90
2021,06,25,14,04,30.00
2021,06,25,14,05,30.10
2021,06,25,14,06,30.00
2021,06,25,14,07,29.90
2021,06,25,14,08,29.90
2021,06,25,14,09,29.90
2021,06,25,14,10,29.80
2021,06,25,14,11,29.80
2021,06,25,14,12,29.70
2021,06,25,14,13,29.70
2021,06,25,14,14,29.70
2021,06,25,14,15,29.70
2021,06,25,14,16,29.70
2021,06,25,14,17,29.60
2021,06,25,14,18,29.60
2021,06,25,14,19,29.50
2021,06,25,14,20,29.50
2021,06,25,14,21,29.40
2021,06,25,14,22,29.50
2021,06,25,14,23,29.50
2021,06,25,14,24,29.40
2021,06,25,14,25,29.40
2021,06,25,14,26,29.50
2021,06,25,14,27,29.40
2021,06,25,14,28,29.40
2021,06,25,14,29,29.40
2021,06,25,14,30,29.40
2021,06,25,14,31,29.40
2021,06,25,14,32,29.40
2021,06,25,14,33,29.40
2021,06,25,14,34,29.40
2021,06,25,14,35,29.40
2021,06,25,14,36,29.40
2021,06,25,14,37,29.40
2021,06,25,14,38,29.50
2021,06,25,14,39,29.50
2021,06,25,14,40,29.50
2021,06,25,14,41,29.50
2021,06,25,14,42,29.40
2021,06,25,14,43,29.40
2021,06,25,14,44,29.40
2021,06,25,14,45,29.40
2021,06,25,14,46,29.40
2021,06,25,14,47,29.40
2021,06,25,14,48,29.50
2021,06,25,14,49,29.50
2021,06,25,14,50,29.60
2021,06,25,14,51,29.60
2021,06,25,14,52,29.70
2021,06,25,14,53,29.70
2021,06,25,14,54,29.70
2021,06,25,14,55,29.70
2021,06,25,14,56,29.70
2021,06,25,14,57,29.70
2021,06,25,14,58,29.70
2021,06,25,14,59,29.70
2021,06,25,15,00,29.70
2021,06,25,15,01,29.80
2021,06,25,15,02,29.80
2021,06,25,15,03,29.80
2021,06,25,15,04,29.80
2021,06,25,15,05,29.80
2021,06,25,15,06,29.80
2021,06,25,15,07,29.80
2021,06,25,15,08,29.80
2021,06,25,15,09,29.80
2021,06,25,15,10,29.80
2021,06,25,15,11,29.80
2021,06,25,15,12,29.80
2021,06,25,15,13,29.80
2021,06,25,15,14,29.80
2021,06,25,15,15,29.80
2021,06,25,15,16,29.80
2021,06,25,15,17,29.80
2021,06,25,15,18,29.90
2021,06,25,15,19,29.90
2021,06,25,15,20,30.00
2021,06,25,15,21,30.20
2021,06,25,15,22,30.30
2021,06,25,15,23,30.30
2021,06,25,15,24,30.40
2021,06,25,15,25,30.50
2021,06,25,15,26,30.60
2021,06,25,15,27,30.60
2021,06,25,15,28,30.60
2021,06,25,15,29,30.60
2021,06,25,15,30,30.60
2021,06,25,15,31,30.60
2021,06,25,15,32,30.60
2021,06,25,15,33,30.70
2021,06,25,15,34,30.70
2021,06,25,15,35,30.80
2021,06,25,15,36,30.90
2021,06,25,15,37,31.00
2021,06,25,15,38,31.00
2021,06,25,15,39,31.00
2021,06,25,15,40,31.00
2021,06,25,15,41,31.00
2021,06,25,15,42,30.90
2021,06,25,15,43,30.90
2021,06,25,15,44,31.00
2021,06,25,15,45,31.00
2021,06,25,15,46,31.10
2021,06,25,15,47,31.10
2021,06,25,15,48,31.00
2021,06,25,15,49,31.00
2021,06,25,15,50,30.90
2021,06,25,15,51,30.90
2021,06,25,15,52,30.80
2021,06,25,15,53,30.80
2021,06,25,15,54,30.80
2021,06,25,15,55,30.80
2021,06,25,15,56,30.90
2021,06,25,15,57,30.90
2021,06,25,15,58,30.90
2021,06,25,15,59,31.00
2021,06,25,16,00,31.00
2021,06,25,16,01,31.00
2021,06,25,16,02,31.10
2021,06,25,16,03,31.20
2021,06,25,16,04,31.20
2021,06,25,16,05,31.20
2021,06,25,16,06,31.20
2021,06,25,16,07,31.20
2021,06,25,16,08,31.20
2021,06,25,16,09,31.10
2021,06,25,16,10,31.10
2021,06,25,16,11,31.20
2021,06,25,16,12,31.20
2021,06,25,16,13,31.20
2021,06,25,16,14,31.20
2021,06,25,16,15,31.30
2021,06,25,16,16,31.30
2021,06,25,16,17,31.40
2021,06,25,16,18,31.40
2021,06,25,16,19,31.60
2021,06,25,16,20,31.60
2021,06,25,16,21,31.60
2021,06,25,16,22,31.70
2021,06,25,16,23,31.70
2021,06,25,16,24,31.70
2021,06,25,16,25,31.80
2021,06,25,16,26,31.80
2021,06,25,16,27,31.80
2021,06,25,16,28,31.80
2021,06,25,16,29,31.80
2021,06,25,16,30,31.70
2021,06,25,16,31,31.70
2021,06,25,16,32,31.70
2021,06,25,16,33,31.60
2021,06,25,16,34,31.60
2021,06,25,16,35,31.60
2021,06,25,16,36,31.60
2021,06,25,16,37,31.70
2021,06,25,16,38,31.80
2021,06,25,16,39,31.80
2021,06,25,16,40,31.80
2021,06,25,16,41,31.80
2021,06,25,16,42,31.70
2021,06,25,16,43,31.70
2021,06,25,16,44,31.60
2021,06,25,16,45,31.50
2021,06,25,16,46,31.40
2021,06,25,16,47,31.40
2021,06,25,16,48,31.40
2021,06,25,16,49,31.40
2021,06,25,16,50,31.40
2021,06,25,16,51,31.50
2021,06,25,16,52,31.60
2021,06,25,16,53,31.80
2021,06,25,16,54,31.80
2021,06,25,16,55,31.90
2021,06,25,16,56,31.90
2021,06,25,16,57,32.00
2021,06,25,16,58,32.10
2021,06,25,16,59,32.10
2021,06,25,17,00,32.20
2021,06,25,17,01,32.20
2021,06,25,17,02,32.30
2021,06,25,17,03,32.40
2021,06,25,17,04,32.40
2021,06,25,17,05,32.50
2021,06,25,17,06,32.50
2021,06,25,17,07,32.50
2021,06,25,17,08,32.50
2021,06,25,17,09,32.50
2021,06,25,17,10,32.40
2021,06,25,17,11,32.40
2021,06,25,17,12,32.40
2021,06,25,17,13,32.40
2021,06,25,17,14,32.40
2021,06,25,17,15,32.30
2021,06,25,17,16,32.30
2021,06,25,17,17,32.30
2021,06,25,17,18,32.20
2021,06,25,17,19,32.10